Flint, MI

8:41 PM EDT on September 21, 2019 (GMT -0400)
Bishop International

Weather History for KFNT - August, 2019

Change the Weather History Date:

Sunday, August 25, 2019

  Actual Average Record
Temperature  
Mean Temperature 65 °F 68 °F  
Max Temperature 77 °F 79 °F 95 °F (1948)
Min Temperature 53 °F 57 °F 41 °F (1923)
Degree Days  
Heating Degree Days 0 1  
Month to date heating degree days 6 24  
Since 1 June heating degree days 58 105  
Since 1 July heating degree days 6 39  
Cooling Degree Days 0 4  
Month to date cooling degree days 163 125  
Year to date cooling degree days 591 456  
Since 1 June cooling degree days 582 424  
Growing Degree Days 16 (Base 50)    
Moisture  
Dew Point 54 °F    
Average Humidity 72    
Maximum Humidity 93    
Minimum Humidity 50    
Precipitation  
Precipitation 0.00 in 0.10 in 1.23 in (1940)
Month to date precipitation 3.01 2.54  
Year to date precipitation 23.70 19.92  
Snow  
Snow 0.00 in 0.00 in 0.00 in ()
Month to date snowfall 0.0 0.0  
Since 1 June snowfall 0.0 0.0  
Since 1 July snowfall 0.0 0.0  
Snow Depth 0.00 in    
Sea Level Pressure  
Sea Level Pressure 30.20 in    
Wind  
Wind Speed 8 mph (ESE)    
Max Wind Speed 17 mph    
Max Gust Speed 21 mph    
Visibility 10 miles    
Events      
T = Trace of Precipitation, MM = Missing Value Source: NWS Daily Summary

Daily Weather History Graph

Daily Weather History Graph

Search for Another Location

Airport or City:

Astronomy

Aug. 25, 2019 Rise Set
Actual Time 6:51 AM EDT 8:21 PM EDT
Civil Twilight 6:21 AM EDT 8:51 PM EDT
Nautical Twilight 5:45 AM EDT 9:27 PM EDT
Astronomical Twilight 5:07 AM EDT 10:05 PM EDT
Moon 1:21 AM EDT (8/25) 4:46 PM EDT (8/25)
Length of Visible Light 14h 29m
Length of Day
13h 30m
Waning Crescent, 29% of the Moon is Illuminated
Aug 25
Waning Crescent
Aug 30
New
Sep 5
First Quarter
Sep 14
Full
Sep 21
Last Quarter

Hourly Weather History & Observations

Time (EDT) Temp. Dew Point Humidity Pressure Visibility Wind Dir Wind Speed Gust Speed Precip Events Conditions
12:53 AM 57.0 °F 51.1 °F 81% 30.28 in 10.0 mi East 4.6 mph - N/A   Clear
1:53 AM 55.9 °F 52.0 °F 87% 30.28 in 10.0 mi Calm Calm - N/A   Clear
2:53 AM 55.9 °F 52.0 °F 87% 30.26 in 10.0 mi Calm Calm - N/A   Clear
3:53 AM 54.0 °F 51.1 °F 90% 30.25 in 10.0 mi Calm Calm - N/A   Clear
4:53 AM 55.9 °F 52.0 °F 87% 30.27 in 10.0 mi East 3.5 mph - N/A   Clear
5:53 AM 54.0 °F 51.1 °F 90% 30.25 in 10.0 mi ENE 6.9 mph - N/A   Clear
6:53 AM 55.0 °F 52.0 °F 89% 30.25 in 10.0 mi ENE 5.8 mph - N/A   Clear
7:53 AM 57.9 °F 54.0 °F 87% 30.25 in 10.0 mi East 6.9 mph - N/A   Partly Cloudy
8:53 AM 64.0 °F 55.9 °F 75% 30.25 in 10.0 mi East 8.1 mph - N/A   Clear
9:53 AM 68.0 °F 55.9 °F 65% 30.25 in 10.0 mi SE 11.5 mph - N/A   Scattered Clouds
10:53 AM 71.1 °F 55.9 °F 59% 30.24 in 10.0 mi ESE 11.5 mph 19.6 mph N/A   Scattered Clouds
11:53 AM 73.0 °F 55.9 °F 55% 30.23 in 10.0 mi ESE 11.5 mph - N/A   Mostly Cloudy
12:53 PM 73.0 °F 55.0 °F 53% 30.22 in 10.0 mi ESE 13.8 mph - N/A   Mostly Cloudy
1:53 PM 73.0 °F 55.9 °F 55% 30.21 in 10.0 mi ESE 12.7 mph 18.4 mph N/A   Mostly Cloudy
2:53 PM 73.9 °F 55.0 °F 52% 30.18 in 10.0 mi East 13.8 mph - N/A   Mostly Cloudy
3:53 PM 75.0 °F 55.0 °F 50% 30.16 in 10.0 mi East 10.4 mph - N/A   Scattered Clouds
4:53 PM 75.9 °F 55.0 °F 48% 30.15 in 10.0 mi ESE 12.7 mph 19.6 mph N/A   Scattered Clouds
5:53 PM 75.0 °F 55.0 °F 50% 30.13 in 10.0 mi ESE 13.8 mph - N/A   Partly Cloudy
6:53 PM 72.0 °F 53.1 °F 51% 30.12 in 10.0 mi SE 13.8 mph - N/A   Clear
7:53 PM 69.1 °F 53.1 °F 57% 30.12 in 10.0 mi SE 9.2 mph - N/A   Clear
8:53 PM 64.0 °F 52.0 °F 65% 30.12 in 10.0 mi ESE 5.8 mph - N/A   Clear
9:53 PM 62.1 °F 52.0 °F 70% 30.13 in 10.0 mi East 6.9 mph - N/A   Clear
10:53 PM 61.0 °F 52.0 °F 72% 30.13 in 10.0 mi East 5.8 mph - N/A   Clear
11:53 PM 60.1 °F 52.0 °F 75% 30.12 in 10.0 mi East 5.8 mph - N/A   Clear